Regional Weather Roundup
Issued by NWS Jackson, KY

Home | Current Version | Previous Version | Text Only | Print | Product List | Glossary On
Versions: 1 2 3 4 5 6 7 8 9 10 11 12 13 14 15 16 17 18 19 20 21 22 23 24 25 26 27 28 29 30 31 32 33 34 35 36 37 38 39 40 41 42 43 44 45 46 47 48 49 50
000
ASUS43 KJKL 311010
RWRJKL

EAST KENTUCKY HOURLY WEATHER ROUNDUP
NATIONAL WEATHER SERVICE JACKSON KY
600 AM EDT FRI JUL 31 2015

NOTE: "FAIR" INDICATES FEW OR NO CLOUDS BELOW 12,000 FEET WITH
NO SIGNIFICANT WEATHER AND/OR OBSTRUCTIONS TO VISIBILITY.

* THESE REPORTS ARE NOT UNDER NWS QUALITY CONTROL AND MAY NOT
  REPORT WEATHER SUCH AS PRECIPITATION AND FOG.

KYZ079-080-083-085-087-088-110-112-115-119-120-311100
...EASTERN KENTUCKY...

CITY           SKY/WX    TMP DP  RH WIND       PRES   REMARKS
JACKSON        CLEAR     62  58  86 CALM      30.08R
LONDON         CLEAR     62  57  83 CALM      30.08S
SOMERSET*      CLEAR     59  59 100 CALM      30.09S
MONTICELLO*    PTCLDY    57  57 100 CALM      30.11S FOG
WILLIAMSBURG*  MOCLDY    57  57 100 CALM      30.09R
MIDDLESBORO*   CLEAR     60  60 100 CALM      30.09S
HAZARD APT*    SUNNY     61  61 100 CALM      30.08R
BLACK MTN*       N/A     59  54  82 VRB12       N/A
PIKEVILLE APT* CLEAR     63  63 100 CALM      30.08R
BIG SANDY*     SUNNY     63  62  97 CALM      30.06S
MOREHEAD APT*  SUNNY     63  61  94 CALM      30.08R
$$

KYZ035-036-041-042-044-050-067-078-099-311100
...CENTRAL KENTUCKY...

CITY           SKY/WX    TMP DP  RH WIND       PRES   REMARKS
MT STERLING*   CLEAR     59  59 100 CALM      30.08R
FLEMING/MASON* CLEAR     63  61  94 CALM      30.07R
DANVILLE*      CLEAR     61  59  94 CALM      30.09R
RICHMOND*      CLEAR     64  59  82 S3        30.07S
LEXINGTON      CLEAR     62  59  90 CALM      30.07S
FRANKFORT      CLEAR     61  59  93 CALM      30.05S
$$

KYZ091>093-OHZ055-061-077-WVZ005-015-034-035-042-311100
...SOUTHERN OHIO/WEST VIRGINIA...

CITY           SKY/WX    TMP DP  RH WIND       PRES   REMARKS
COVINGTON      CLEAR     66  61  85 CALM      30.05S
COLUMBUS       CLEAR     64  60  87 SE3       30.01F
DAYTON         CLEAR     63  60  90 W7        30.04S
WILMINGTON     CLEAR     62  58  86 W5        30.04S
HUNTINGTON     CLEAR     60  60 100 CALM      30.03S
CHARLESTON     PTCLDY    63  61  93 CALM      30.04R
PINEVILLE*     FOG       62  62 100 MISG      30.13S VSB 1/4
BECKLEY        CLEAR     59  55  87 S5        30.10R
BLUEFIELD      CLEAR     62  56  80 W5        30.12S
$$

VAZ002-007-008-TNZ017-027-036-066-071-311100
...SOUTHWEST VIRGINIA/EAST TENNESSEE...

CITY           SKY/WX    TMP DP  RH WIND       PRES   REMARKS
WISE*          CLEAR     63  61  94 CALM      30.13F
ABINGDON*      CLEAR     61  59  92 CALM      30.09S
BRISTOL        CLEAR     61  60  97 CALM      30.07S
KNOXVILLE      PTCLDY    70  62  76 N6        30.04S
OAK RIDGE      CLEAR     65  61  87 CALM      30.06S
CROSSVILLE     PTCLDY    62  57  83 CALM      30.11S
NASHVILLE      CLEAR     69  62  78 CALM      30.08R
$$

...KEY TO REMARKS...
VSB - VISIBILITY IN MILES
WCI - WIND CHILL INDEX
HX  - HEAT INDEX

$$


USA.gov is the U.S. government's official web portal to all federal, state and local government web resources and services.